Location: 22
(39.7117°N, 89.5929°W)
Time: 08:32:33
(UTC-05:00)

Transit 2A - Pass Details

Date: 10 August 2024
Orbit: 590 x 961 km, 66.7° (Epoch: 13 September)

Event Time Altitude Azimuth Distance (km) Brightness Sun altitude
Rises 14:06:35 0° 322° (NW) 3,651 9.4 61.9°
Reaches altitude 10° 14:09:24 10° 313° (NW) 2,696 8.9 61.6°
Maximum altitude 14:14:58 33° 252° (WSW) 1,514 8.6 61.0°
Drops below altitude 10° 14:20:18 10° 190° (S) 2,568 9.3 60.3°
Sets 14:22:56 0° 181° (S) 3,454 9.7 60.0°
